Miscellaneous Local Product
Issued by NWS North Platte, NE

Home | Current Version | Previous Version | Text Only | Print | Product List | Glossary On
Versions: 1 2 3 4 5 6 7 8 9 10 11 12 13 14 15 16 17 18 19 20 21 22 23 24 25 26 27 28 29 30 31 32 33 34 35 36 37 38 39 40 41 42 43 44 45 46 47 48 49 50
000
AXUS43 KLBF 181410
MISLBF


WESTERN AND NORTH CENTRAL NEBRASKA HOURLY WEATHER ROUNDUP
NATIONAL WEATHER SERVICE NORTH PLATTE NE
900 AM CDT SAT APR 18 2015

***STATIONS NOT REPORTING VARIABLES SUCH AS SKY/WEATHER OR
PRESSURE ARE PROVIDED BY THE NEBRASKA DEPARTMENT OF
ROADS...RAWS...AND APRS NETWORKS...AND ARE NOT UNDER
NATIONAL WEATHER SERVICE QUALITY CONTROL***

...OBSERVATIONS IN AND NEAR THE EASTERN PANHANDLE OF NEBRASKA...

CITY           SKY/WX    TMP DP  RH WIND       PRES   REMARKS
PINE RIDGE     LGT RAIN  45  42  89 NE10      29.95S
CHADRON        LGT RAIN  47  45  93 NE14      29.93F FOG
ALLIANCE       CLOUDY    47  44  90 E5        29.91S
SIDNEY         CLOUDY    41  39  93 NW9       29.93S
WHITECLAY        N/A     43  41  93 NE6         N/A
CRESCENT LAKE    N/A     46  45  96 CALM        N/A
BIG SPRINGS      N/A     46  45  96 CALM        N/A
$$

...OBSERVATIONS IN NORTH CENTRAL NEBRASKA...

CITY           SKY/WX    TMP DP  RH WIND       PRES   REMARKS
VALENTINE      CLOUDY    50  48  93 E8        29.93S
THEDFORD       CLOUDY    51  50  97 NE3       29.92S
AINSWORTH      CLOUDY    51  49  96 CALM      29.92R
O`NEILL        RAIN      53  52  98 NE9       29.93F
ORD            CLOUDY    54  51  90 NE6       29.89F
BROKEN BOW     CLOUDY    54  51  90 N7        29.90F
SPRINGVIEW       N/A     50  48  92 CALM        N/A
ROSE             N/A     53  53  99 CALM        N/A
NEWPORT          N/A     50  50 100 NE18        N/A
SARGENT          N/A     53  52  97 W3          N/A
COMSTOCK         N/A     57  57  99 CALM        N/A
EWING            N/A     53  51  93 N3          N/A
$$

...OBSERVATIONS IN SOUTHWEST NEBRASKA AND FAR NORTHEAST COLORADO...

CITY           SKY/WX    TMP DP  RH WIND       PRES   REMARKS
WRAY           CLOUDY   N/A N/A N/A NE3       29.94R
HOLYOKE        CLOUDY    46  43  87 N5        29.94R
IMPERIAL       PTSUNNY   46  45  96 CALM      29.92F FOG
OGALLALA       SUNNY     47  47  99 CALM      29.92S
NORTH PLATTE   CLOUDY    50  50 100 E6        29.91F
MCCOOK         SUNNY     51  46  83 CALM      29.91F
LEXINGTON      MOSUNNY   51  49  95 CALM      29.90F
PAXTON           N/A     44  42  94 CALM        N/A
SUTHERLAND       N/A     46  44  93 E6          N/A
BRADY            N/A     48  46  94 CALM        N/A
GOTHENBURG       N/A     47  44  91 CALM        N/A
CALLAWAY         N/A     50  49  97 N3          N/A
$$

...NORTH PLATTE AREA...

CITY           SKY/WX    TMP DP  RH WIND       PRES   REMARKS
AIRPORT        CLOUDY    50  50 100 E6        29.91F
DOWNTOWN         N/A     49  48  96 CALM        N/A
$$

...SOME WEATHER OBSERVATIONS FROM AROUND THE REGION...

CITY           SKY/WX    TMP DP  RH WIND       PRES   REMARKS
DENVER         CLOUDY    39  36  89 CALM      29.95S
LARAMIE        SNOW      28  27  96 S5        29.95F VSB 1/2 WCI  23
CHEYENNE       CLOUDY    36  32  85 NW6       29.94S WCI  31
SCOTTSBLUFF    CLOUDY    44  32  62 W7        29.93S
RAPID CITY     CLOUDY    48  46  93 NW7       29.99F
PIERRE         LGT RAIN  50  34  54 E3        29.98S
WINNER         LGT RAIN  49  42  77 E7        29.97S
SIOUX FALLS    CLOUDY    56  36  47 E8        29.99F
OMAHA          CLOUDY    63  56  78 E10       29.91F
GRAND ISLAND   CLOUDY    56  54  93 CALM      29.90F
KANSAS CITY    CLOUDY    63  59  87 S8        29.90F
WICHITA        CLOUDY    62  59  90 S5        29.90F
HAYS           CLOUDY    54  45  71 S3        29.91S
LIBERAL        SUNNY     46  39  76 NW9       29.92F
GOODLAND       CLOUDY    45  45 100 E8        29.92R FOG
$$



USA.gov is the U.S. government's official web portal to all federal, state and local government web resources and services.